Artesia, NM

3:46 AM MDT on July 24, 2017 (GMT -0600)
Artesia Municipal

Weather History for KATS - July, 2013

Change the Weather History Date:

Tuesday, July 16, 2013

  Actual Average Record
Temperature  
Mean Temperature 70 °F -  
Max Temperature 80 °F 94 °F 105 °F (1963)
Min Temperature 59 °F 64 °F 57 °F (1975)
Cooling Degree Days 4    
Growing Degree Days 20 (Base 50)    
Moisture  
Dew Point 56 °F    
Average Humidity 66    
Maximum Humidity 100    
Minimum Humidity 36    
Precipitation  
Precipitation 0.00 in - - ()
Sea Level Pressure  
Sea Level Pressure 30.17 in    
Wind  
Wind Speed 5 mph (ENE)    
Max Wind Speed 16 mph    
Max Gust Speed 20 mph    
Visibility 9 miles    
Events Rain    
Averages and records for this station are not official NWS values.
T = Trace of Precipitation, MM = Missing Value Source: NWS Daily Summary

Daily Weather History Graph

Daily Weather History Graph

Search for Another Location

Airport or City:

Trip Planner

Search our weather history database for the weather conditions in past years. The results will help you decide how hot, cold, wet, or windy it might be!

Date:

Astronomy

Jul. 16, 2013 Rise Set
Actual Time 6:01 AM MDT 8:06 PM MDT
Civil Twilight 5:33 AM MDT 8:34 PM MDT
Nautical Twilight 4:59 AM MDT 9:08 PM MDT
Astronomical Twilight 4:22 AM MDT 9:44 PM MDT
Moon 1:57 PM MDT (7/16) 12:23 AM MDT (7/16)
Length of Visible Light 15h 00m
Length of Day
14h 05m
First Quarter, 57% of the Moon is Illuminated
Jul 16
First Quarter
Jul 22
Full
Jul 29
Last Quarter
Aug 6
New
Aug 14
First Quarter

Hourly Weather History & Observations

Time (MDT) Temp. Dew Point Humidity Pressure Visibility Wind Dir Wind Speed Gust Speed Precip Events Conditions
12:15 AM 64.4 °F 57.2 °F 77% 30.16 in 10.0 mi South 5.8 mph - N/A   Scattered Clouds
12:35 AM 62.6 °F 57.2 °F 82% 30.16 in 10.0 mi South 5.8 mph - N/A   Partly Cloudy
12:55 AM 62.6 °F 57.2 °F 82% 30.16 in 10.0 mi SSE 4.6 mph - N/A   Clear
1:15 AM 62.6 °F 57.2 °F 82% 30.16 in 10.0 mi SE 3.5 mph - N/A   Partly Cloudy
1:35 AM 62.6 °F 57.2 °F 82% 30.16 in 10.0 mi South 3.5 mph - N/A Rain Light Rain
1:55 AM 62.6 °F 57.2 °F 82% 30.15 in 10.0 mi Calm Calm - N/A   Clear
2:15 AM 62.6 °F 57.2 °F 82% 30.15 in 10.0 mi Calm Calm - N/A   Clear
2:35 AM 62.6 °F 57.2 °F 82% 30.15 in 10.0 mi Calm Calm - N/A   Clear
2:55 AM 62.6 °F 57.2 °F 82% 30.14 in 10.0 mi Calm Calm - N/A   Clear
3:15 AM 62.6 °F 57.2 °F 82% 30.14 in 10.0 mi Calm Calm - N/A   Clear
3:35 AM 62.6 °F 57.2 °F 82% 30.15 in 10.0 mi Calm Calm - N/A   Clear
3:55 AM 62.6 °F 57.2 °F 82% 30.14 in 10.0 mi Calm Calm - N/A   Clear
4:15 AM 60.8 °F 57.2 °F 88% 30.14 in 10.0 mi Calm Calm - N/A   Clear
4:35 AM 59.0 °F 59.0 °F 100% 30.14 in 10.0 mi North 3.5 mph - N/A   Clear
4:55 AM 59.0 °F 59.0 °F 100% 30.14 in 10.0 mi North 4.6 mph - N/A   Clear
5:15 AM 59.0 °F 59.0 °F 100% 30.15 in 7.0 mi North 5.8 mph - N/A   Clear
5:35 AM 59.0 °F 59.0 °F 100% 30.15 in 6.0 mi North 3.5 mph - N/A   Clear
5:55 AM 59.0 °F 59.0 °F 100% 30.15 in 5.0 mi NNW 4.6 mph - N/A   Clear
6:15 AM 59.0 °F 59.0 °F 100% 30.16 in 4.0 mi NNW 5.8 mph - N/A   Clear
6:35 AM 59.0 °F 59.0 °F 100% 30.17 in 4.0 mi NNW 4.6 mph - N/A   Clear
6:55 AM 60.8 °F 59.0 °F 94% 30.17 in 5.0 mi Calm Calm - N/A   Clear
7:15 AM 60.8 °F 59.0 °F 94% 30.18 in 5.0 mi North 3.5 mph - N/A   Clear
7:35 AM 62.6 °F 59.0 °F 88% 30.19 in 5.0 mi NE 3.5 mph - N/A   Clear
7:55 AM 62.6 °F 59.0 °F 88% 30.20 in 5.0 mi Calm Calm - N/A   Clear
8:15 AM 62.6 °F 59.0 °F 88% 30.20 in 5.0 mi Calm Calm - N/A   Scattered Clouds
8:35 AM 64.4 °F 59.0 °F 83% 30.20 in 5.0 mi ENE 3.5 mph - N/A   Haze
8:55 AM 64.4 °F 59.0 °F 83% 30.20 in 7.0 mi NE 3.5 mph - N/A   Clear
9:15 AM 66.2 °F 59.0 °F 78% 30.20 in 8.0 mi Calm Calm - N/A   Clear
9:55 AM 68.0 °F 59.0 °F 73% 30.21 in 10.0 mi ENE 4.6 mph - N/A   Clear
10:15 AM 68.0 °F 59.0 °F 73% 30.21 in 10.0 mi NE 4.6 mph - N/A   Clear
10:35 AM 71.6 °F 57.2 °F 60% 30.21 in 10.0 mi North 6.9 mph - N/A   Clear
10:55 AM 71.6 °F 53.6 °F 53% 30.21 in 10.0 mi East 4.6 mph - N/A   Clear
11:15 AM 73.4 °F 55.4 °F 53% 30.21 in 10.0 mi ENE 5.8 mph - N/A   Clear
11:35 AM 73.4 °F 53.6 °F 50% 30.20 in 10.0 mi NNE 4.6 mph - N/A   Clear
11:55 AM 73.4 °F 55.4 °F 53% 30.19 in 10.0 mi NNE 8.1 mph - N/A   Partly Cloudy
12:15 PM 73.4 °F 53.6 °F 50% 30.19 in 10.0 mi Calm Calm - N/A   Scattered Clouds
12:35 PM 75.2 °F 53.6 °F 47% 30.19 in 10.0 mi Calm Calm - N/A   Partly Cloudy
12:55 PM 75.2 °F 53.6 °F 47% 30.19 in 10.0 mi Calm Calm - N/A   Scattered Clouds
1:15 PM 75.2 °F 53.6 °F 47% 30.18 in 10.0 mi NE 4.6 mph - N/A   Scattered Clouds
1:35 PM 77.0 °F 53.6 °F 44% 30.17 in 10.0 mi ENE 8.1 mph - N/A   Mostly Cloudy
2:55 PM 78.8 °F 53.6 °F 42% 30.15 in 10.0 mi East 6.9 mph - N/A   Clear
3:15 PM 78.8 °F 51.8 °F 39% 30.15 in 10.0 mi Calm Calm - N/A   Partly Cloudy
3:35 PM 78.8 °F 51.8 °F 39% 30.14 in 10.0 mi SE 5.8 mph - N/A   Scattered Clouds
3:55 PM 80.6 °F 51.8 °F 37% 30.14 in 10.0 mi SSE 3.5 mph - N/A   Partly Cloudy
4:15 PM 80.6 °F 51.8 °F 37% 30.13 in 10.0 mi SSW 6.9 mph - N/A   Clear
4:35 PM 80.6 °F 51.8 °F 37% 30.13 in 10.0 mi East 9.2 mph - N/A   Scattered Clouds
4:55 PM 80.6 °F 51.8 °F 37% 30.13 in 10.0 mi SE 5.8 mph - N/A   Mostly Cloudy
5:15 PM 80.6 °F 51.8 °F 37% 30.13 in 10.0 mi East 10.4 mph - N/A   Mostly Cloudy
5:35 PM 78.8 °F 51.8 °F 39% 30.13 in 10.0 mi ESE 10.4 mph - N/A   Mostly Cloudy
5:55 PM 78.8 °F 51.8 °F 39% 30.13 in 10.0 mi ESE 6.9 mph - N/A   Mostly Cloudy
6:15 PM 78.8 °F 50.0 °F 36% 30.13 in 10.0 mi East 8.1 mph - N/A   Partly Cloudy
6:35 PM 80.6 °F 51.8 °F 37% 30.13 in 10.0 mi ENE 11.5 mph - N/A   Scattered Clouds
6:55 PM 77.0 °F 55.4 °F 47% 30.14 in 10.0 mi NE 16.1 mph - N/A   Mostly Cloudy
7:15 PM 75.2 °F 55.4 °F 50% 30.14 in 10.0 mi NE 13.8 mph - N/A   Scattered Clouds
7:35 PM 75.2 °F 55.4 °F 50% 30.15 in 10.0 mi NE 11.5 mph - N/A   Partly Cloudy
7:55 PM 75.2 °F 55.4 °F 50% 30.16 in 10.0 mi NNE 9.2 mph - N/A   Partly Cloudy
8:15 PM 75.2 °F 55.4 °F 50% 30.16 in 10.0 mi NE 6.9 mph - N/A   Scattered Clouds
8:35 PM 73.4 °F 59.0 °F 61% 30.17 in 10.0 mi NE 15.0 mph 19.6 mph N/A   Mostly Cloudy
8:55 PM 73.4 °F 57.2 °F 57% 30.19 in 10.0 mi ENE 11.5 mph 17.3 mph N/A   Mostly Cloudy
9:15 PM 73.4 °F 57.2 °F 57% 30.19 in 10.0 mi ENE 9.2 mph - N/A   Mostly Cloudy
9:35 PM 73.4 °F 57.2 °F 57% 30.20 in 10.0 mi East 12.7 mph - N/A   Scattered Clouds
9:55 PM 71.6 °F 59.0 °F 64% 30.21 in 10.0 mi ESE 13.8 mph - N/A   Mostly Cloudy
10:15 PM 71.6 °F 59.0 °F 64% 30.23 in 10.0 mi SE 10.4 mph - N/A   Mostly Cloudy
10:35 PM 69.8 °F 59.0 °F 68% 30.23 in 10.0 mi SSE 10.4 mph - N/A   Mostly Cloudy
10:55 PM 69.8 °F 59.0 °F 68% 30.23 in 10.0 mi ESE 6.9 mph - N/A   Partly Cloudy
11:15 PM 71.6 °F 59.0 °F 64% 30.24 in 10.0 mi ESE 8.1 mph - N/A   Partly Cloudy
11:35 PM 69.8 °F 59.0 °F 68% 30.25 in 10.0 mi SE 12.7 mph - N/A   Mostly Cloudy
11:55 PM 69.8 °F 57.2 °F 64% 30.25 in 10.0 mi SE 13.8 mph - N/A   Partly Cloudy